This is the latest recevied weather packets stored in our database for station/object G4KVI. If no packets are shown the sender has not sent any weather packets the latest 10 day(s).
| Time | Temp. | Humidity | Pressure | Rain* | Wind** | Luminosity | Snow |
|---|---|---|---|---|---|---|---|
| 1777549804 | 20° C | 36% | 1021.4 hPa | 0 mm | - | 719 W/m² | - |
| 1777549504 | 20° C | 37% | 1021.3 hPa | 0 mm | - | 718 W/m² | - |
| 1777549204 | 20° C | 37% | 1021.6 hPa | 0 mm | - | 714 W/m² | - |
| 1777548904 | 19.44° C | 37% | 1021.6 hPa | 0 mm | - | 713 W/m² | - |
| 1777548604 | 19.44° C | 37% | 1021.8 hPa | 0 mm | - | 709 W/m² | - |
| 1777548304 | 19.44° C | 38% | 1021.7 hPa | 0 mm | - | 709 W/m² | - |
| 1777548004 | 19.44° C | 37% | 1021.9 hPa | 0 mm | - | 704 W/m² | - |
| 1777547708 | 19.44° C | 38% | 1021.7 hPa | 0 mm | - | 701 W/m² | - |
| 1777547404 | 19.44° C | 38% | 1021.9 hPa | 0 mm | - | 697 W/m² | - |
| 1777547104 | 18.89° C | 38% | 1021.8 hPa | 0 mm | - | 729 W/m² | - |
| 1777546804 | 18.89° C | 38% | 1022 hPa | 0 mm | - | 686 W/m² | - |
| 1777546504 | 18.89° C | 39% | 1021.9 hPa | 0 mm | - | 685 W/m² | - |
| 1777546204 | 18.33° C | 38% | 1021.7 hPa | 0 mm | - | 677 W/m² | - |
| 1777545904 | 18.89° C | 38% | 1021.8 hPa | 0 mm | - | 675 W/m² | - |
| 1777545604 | 18.89° C | 39% | 1021.8 hPa | 0 mm | - | 668 W/m² | - |
| 1777545304 | 18.33° C | 39% | 1021.9 hPa | 0 mm | - | 661 W/m² | - |
| 1777545004 | 18.33° C | 39% | 1021.6 hPa | 0 mm | - | 657 W/m² | - |
| 1777544704 | 18.33° C | 40% | 1021.9 hPa | 0 mm | - | 650 W/m² | - |
| 1777544404 | 17.78° C | 40% | 1021.8 hPa | 0 mm | - | 643 W/m² | - |
| 1777544104 | 17.78° C | 40% | 1022 hPa | 0 mm | - | 636 W/m² | - |
| 1777543804 | 17.78° C | 40% | 1021.9 hPa | 0 mm | - | 628 W/m² | - |
| 1777543504 | 17.22° C | 41% | 1021.8 hPa | 0 mm | - | 620 W/m² | - |
| 1777543204 | 17.22° C | 41% | 1022 hPa | 0 mm | - | 612 W/m² | - |
| 1777542904 | 17.22° C | 41% | 1022 hPa | 0 mm | - | 604 W/m² | - |
| 1777542604 | 17.22° C | 41% | 1022 hPa | 0 mm | - | 595 W/m² | - |
* Rain latest hour (hover to see other rain measurements)
** Current wind speed in m/s (hover to see current wind gust speed)